GW3733 Weather Reports


time (UTC)temp
C
wind
direction
speed
KPH
gust
KPH
rain 1hr
cm
rain 24hr
cm
rain mn
cm
humidity
%
barometer
mb
20260504185836 22 15 0.0 1.6 0.00 0.00 0.00 38 1005.9
20260504185333 22 48 3.2 4.8 0.00 0.00 0.00 39 1006.0
20260504184829 22 355 0.0 1.6 0.00 0.00 0.00 39 1006.1
20260504184325 22 321 1.6 3.2 0.00 0.00 0.00 38 1005.9
20260504183820 22 13 4.8 6.4 0.00 0.00 0.00 38 1006.1
20260504183318 23 346 1.6 3.2 0.00 0.00 0.00 35 1005.9
20260504182816 23 38 1.6 1.6 0.00 0.00 0.00 38 1006.0
20260504182313 23 335 3.2 4.8 0.00 0.00 0.00 35 1005.9
20260504181810 23 272 1.6 1.6 0.00 0.00 0.00 34 1005.8
20260504181307 23 231 6.4 6.4 0.00 0.00 0.00 34 1005.9
20260504180806 23 252 6.4 6.4 0.00 0.00 0.00 36 1006.1
20260504180305 23 329 4.8 4.8 0.00 0.00 0.00 40 1006.2
20260504175802 23 281 6.4 6.4 0.00 0.00 0.00 34 1006.5
20260504175259 23 336 1.6 1.6 0.00 0.00 0.00 35 1006.3
20260504174757 23 210 3.2 3.2 0.00 0.00 0.00 39 1006.4
20260504174254 23 125 3.2 3.2 0.00 0.00 0.00 39 1006.5
20260504173750 23 292 6.4 6.4 0.00 0.00 0.00 35 1006.5
20260504173248 23 337 3.2 3.2 0.00 0.00 0.00 36 1006.3
20260504172744 23 352 1.6 1.6 0.00 0.00 0.00 43 1006.7
20260504172241 22 320 1.6 1.6 0.00 0.00 0.00 40 1006.7
20260504171737 22 334 3.2 4.8 0.00 0.00 0.00 37 1006.8
20260504171234 23 284 1.6 1.6 0.00 0.00 0.00 35 1006.8
20260504170731 22 314 3.2 3.2 0.00 0.00 0.00 35 1007.1
20260504170229 23 296 4.8 4.8 0.00 0.00 0.00 40 1007.1
20260504160147 20 338 6.4 6.4 0.00 0.00 0.00 42 1008.2
20260504151114 20 116 4.8 6.4 0.00 0.00 0.00 37 1008.6
20260504150612 20 79 1.6 3.2 0.00 0.00 0.00 40 1008.5
20260504150109 20 277 3.2 4.8 0.00 0.00 0.00 45 1008.4
20260504141037 18 10 0.0 1.6 0.00 0.00 0.00 41 1008.5
20260504140534 18 35 1.6 1.6 0.00 0.00 0.00 41 1008.6
20260504130458 16 331 3.2 3.2 0.00 0.00 0.00 47 1009.1
20260504110345 5 8 0.0 0.0 0.00 0.00 0.00 89 1009.6
20260504100303 5 10 0.0 0.0 0.00 0.00 0.00 92 1009.9
20260504081656 4 11 0.0 0.0 0.00 0.00 0.00 87 1010.2
20260504081152 5 11 0.0 0.0 0.00 0.00 0.00 88 1010.2
20260504080649 4 11 0.0 0.0 0.00 0.00 0.00 88 1010.2
20260504080145 4 11 0.0 0.0 0.00 0.00 0.00 88 1010.0
20260504070114 3 11 0.0 0.0 0.00 0.00 0.00 90 1010.3
20260504050502 1 11 0.0 0.0 0.00 0.00 0.00 95 1011.5
20260504045959 1 11 0.0 0.0 0.00 0.00 0.00 96 1011.3
20260504045455 1 11 0.0 0.0 0.00 0.00 0.00 95 1011.2
20260504044951 0 11 0.0 0.0 0.00 0.00 0.00 95 1011.1
20260504044449 0 11 0.0 0.0 0.00 0.00 0.00 95 1011.2
20260504043946 0 11 0.0 0.0 0.00 0.00 0.00 95 1011.4
20260504043443 1 11 0.0 0.0 0.00 0.00 0.00 94 1011.2
20260504042940 1 11 0.0 0.0 0.00 0.00 0.00 94 1011.2
20260504042436 1 11 0.0 0.0 0.00 0.00 0.00 94 1011.2
20260504041933 1 11 0.0 0.0 0.00 0.00 0.00 94 1011.0
20260504041429 1 11 0.0 0.0 0.00 0.00 0.00 93 1011.4
20260504040925 1 11 0.0 0.0 0.00 0.00 0.00 93 1011.4
20260504040424 1 11 0.0 0.0 0.00 0.00 0.00 93 1011.4
20260504035919 1 11 0.0 0.0 0.00 0.00 0.00 93 1011.3
20260504035417 1 11 0.0 0.0 0.00 0.00 0.00 93 1011.5
20260504034913 1 11 0.0 0.0 0.00 0.00 0.00 93 1011.6
20260504034411 1 12 0.0 0.0 0.00 0.00 0.00 93 1011.5
20260504033908 1 12 0.0 0.0 0.00 0.00 0.00 93 1011.3
20260504033406 1 12 0.0 0.0 0.00 0.00 0.00 93 1011.2
20260504032902 1 11 0.0 0.0 0.00 0.00 0.00 92 1011.1
20260504032359 1 12 0.0 0.0 0.00 0.00 0.00 91 1011.2
20260504031856 2 12 0.0 0.0 0.00 0.00 0.00 90 1011.2
20260504031353 2 12 0.0 0.0 0.00 0.00 0.00 90 1011.1
20260504030849 2 12 0.0 0.0 0.00 0.00 0.00 88 1011.3
20260504030347 2 12 0.0 0.0 0.00 0.00 0.00 87 1011.1
20260504025843 2 12 0.0 0.0 0.00 0.00 0.00 88 1011.3
20260504025340 3 12 0.0 0.0 0.00 0.00 0.00 87 1011.3
20260504024836 3 13 0.0 0.0 0.00 0.00 0.00 84 1011.2
20260504024333 3 14 0.0 0.0 0.00 0.00 0.00 84 1011.4
20260504023830 3 1 0.0 0.0 0.00 0.00 0.00 86 1011.1
20260504023327 3 1 0.0 1.6 0.00 0.00 0.00 85 1011.1
20260504022822 3 2 0.0 0.0 0.00 0.00 0.00 84 1011.2
20260504022319 3 1 0.0 0.0 0.00 0.00 0.00 84 1011.2
20260504021816 3 1 0.0 0.0 0.00 0.00 0.00 85 1011.2
20260504021314 3 1 0.0 0.0 0.00 0.00 0.00 85 1011.3
20260504020810 3 7 0.0 0.0 0.00 0.00 0.00 86 1011.0
20260504020307 3 9 0.0 0.0 0.00 0.00 0.00 83 1011.1
20260504015803 3 345 1.6 1.6 0.00 0.00 0.00 84 1011.1
20260504015259 3 357 0.0 0.0 0.00 0.00 0.00 82 1011.0
20260504014755 4 357 0.0 0.0 0.00 0.00 0.00 83 1010.9
20260504014252 4 357 0.0 0.0 0.00 0.00 0.00 83 1010.9
20260504013749 4 356 0.0 0.0 0.00 0.00 0.00 84 1011.0
20260504013247 4 357 0.0 0.0 0.00 0.00 0.00 83 1010.6
20260504012743 5 358 0.0 0.0 0.00 0.00 0.00 81 1010.8
20260504012241 5 3 0.0 0.0 0.00 0.00 0.00 79 1010.6
20260504011738 5 2 0.0 0.0 0.00 0.00 0.00 82 1010.6
20260504011235 5 0 0.0 0.0 0.00 0.00 0.00 83 1010.5
20260504010731 5 350 0.0 0.0 0.00 0.00 0.00 83 1010.3
20260504010226 5 350 0.0 0.0 0.00 0.00 0.00 79 1010.4
20260504005723 5 350 0.0 0.0 0.00 0.00 0.00 81 1010.3
20260504005220 5 350 0.0 0.0 0.00 0.00 0.00 79 1010.3
20260504004718 6 350 0.0 0.0 0.00 0.00 0.00 76 1010.5
20260504004215 6 350 0.0 0.0 0.00 0.00 0.00 76 1010.3
20260504003712 6 350 0.0 0.0 0.00 0.00 0.00 71 1010.5
20260504003208 7 350 0.0 0.0 0.00 0.00 0.00 70 1010.2
20260504002705 7 350 0.0 0.0 0.00 0.00 0.00 71 1010.2
20260504002202 7 350 0.0 0.0 0.00 0.00 0.00 67 1010.1
20260504001700 8 350 0.0 0.0 0.00 0.00 0.00 67 1010.3
20260504001156 9 349 0.0 0.0 0.00 0.00 0.00 65 1010.3
20260504000653 10 348 0.0 0.0 0.00 0.00 0.00 59 1010.3
20260504000151 10 5 0.0 0.0 0.00 0.00 0.00 52 1010.1
20260503235649 11 1 0.0 0.0 0.00 0.00 0.00 47 1010.1
20260503235145 11 10 3.2 3.2 0.00 0.00 0.00 49 1010.1
20260503234643 12 349 0.0 0.0 0.00 0.00 0.00 47 1010.0
20260503234141 12 352 0.0 0.0 0.00 0.00 0.00 41 1009.9
20260503233638 12 18 1.6 3.2 0.00 0.00 0.00 37 1010.2
20260503233133 13 347 0.0 1.6 0.00 0.00 0.00 40 1010.3
20260503232630 13 7 0.0 0.0 0.00 0.00 0.00 38 1010.1
20260503232128 13 3 1.6 3.2 0.00 0.00 0.00 37 1010.3
20260503231626 13 341 1.6 1.6 0.00 0.00 0.00 34 1009.9
20260503231122 13 344 3.2 4.8 0.00 0.00 0.00 34 1010.2
20260503230619 13 340 0.0 1.6 0.00 0.00 0.00 33 1010.1
20260503230116 13 350 0.0 1.6 0.00 0.00 0.00 35 1010.1
20260503225614 14 333 3.2 3.2 0.00 0.00 0.00 36 1010.0
20260503225113 14 295 3.2 3.2 0.00 0.00 0.00 34 1010.0
20260503224611 14 1 0.0 0.0 0.00 0.00 0.00 33 1009.9
20260503224109 14 341 1.6 1.6 0.00 0.00 0.00 35 1009.9
20260503223607 15 309 3.2 4.8 0.00 0.00 0.00 34 1009.9
20260503223102 15 251 3.2 4.8 0.00 0.00 0.00 34 1009.9
20260503222600 15 286 3.2 4.8 0.00 0.00 0.00 34 1009.9
20260503222058 15 345 0.0 0.0 0.00 0.00 0.00 35 1009.8
20260503221555 15 296 4.8 6.4 0.00 0.00 0.00 34 1009.8
20260503221053 15 5 1.6 1.6 0.00 0.00 0.00 35 1009.9
20260503220549 15 356 0.0 0.0 0.00 0.00 0.00 34 1009.8
20260503220046 15 300 1.6 1.6 0.00 0.00 0.00 32 1009.9
20260503215543 15 11 3.2 3.2 0.00 0.00 0.00 32 1009.8
20260503215040 15 355 1.6 3.2 0.00 0.00 0.00 34 1010.0
20260503214538 15 281 4.8 4.8 0.00 0.00 0.00 33 1010.0
20260503214034 15 339 3.2 4.8 0.00 0.00 0.00 34 1009.8
20260503213533 15 314 3.2 3.2 0.00 0.00 0.00 33 1010.2
20260503213029 15 343 1.6 3.2 0.00 0.00 0.00 31 1010.0
20260503212527 15 210 3.2 4.8 0.00 0.00 0.00 31 1010.1
20260503212024 15 0 1.6 1.6 0.00 0.00 0.00 30 1009.9
20260503211521 15 264 4.8 6.4 0.00 0.00 0.00 34 1009.9
20260503211016 15 319 1.6 1.6 0.00 0.00 0.00 33 1009.7
20260503210513 15 260 3.2 3.2 0.00 0.00 0.00 34 1010.1
20260503210009 15 246 3.2 3.2 0.00 0.00 0.00 34 1010.1
20260503205506 16 307 0.0 1.6 0.00 0.00 0.00 32 1010.0
20260503205002 16 180 6.4 9.7 0.00 0.00 0.00 35 1010.1
20260503204459 15 226 3.2 3.2 0.00 0.00 0.00 35 1010.0
20260503203956 15 298 3.2 3.2 0.00 0.00 0.00 36 1009.9
20260503203454 15 213 6.4 9.7 0.00 0.00 0.00 33 1010.0
20260503202950 15 306 6.4 11.3 0.00 0.00 0.00 34 1010.3
20260503202448 15 294 1.6 3.2 0.00 0.00 0.00 34 1010.2
20260503201947 15 12 3.2 3.2 0.00 0.00 0.00 32 1010.2
20260503201444 15 293 3.2 4.8 0.00 0.00 0.00 34 1010.5
20260503200941 15 215 3.2 3.2 0.00 0.00 0.00 33 1010.4
20260503200437 15 20 1.6 1.6 0.00 0.00 0.00 31 1010.4
20260503195934 15 12 4.8 6.4 0.00 0.00 0.00 34 1010.5
20260503195431 15 337 6.4 11.3 0.00 0.00 0.00 34 1010.4
20260503194927 15 247 3.2 3.2 0.00 0.00 0.00 35 1010.6
20260503194425 15 201 9.7 11.3 0.00 0.00 0.00 33 1010.5
20260503193920 15 349 4.8 4.8 0.00 0.00 0.00 33 1010.6
20260503193416 15 30 3.2 4.8 0.00 0.00 0.00 32 1010.8
20260503192911 15 281 9.7 14.5 0.00 0.00 0.00 33 1011.0
20260503192408 15 317 3.2 4.8 0.00 0.00 0.00 31 1011.0
20260503191904 15 274 3.2 3.2 0.00 0.00 0.00 33 1010.9
20260503191401 14 326 3.2 4.8 0.00 0.00 0.00 33 1011.1
20260503190857 15 359 3.2 4.8 0.00 0.00 0.00 36 1011.1
20260503190355 15 320 3.2 6.4 0.00 0.00 0.00 31 1011.3